Home > Weather > Waterloo > Past weeks

Flag for Canada Weather for the Past 2 Weeks in Waterloo, Ontario, Canada

Now
37 °F

Fog.


Feels Like: 37 °F
Forecast: 38 / 59 °F
Wind: No wind

Location: Waterloo Well

Current Time: May 3, 2016 at 7:26:03 AM

Latest Report: May 3, 2016 at 7:00 AM


Visibility: 3 mi

Pressure: 29.94 "Hg

Humidity: 100%

Dew Point: 37 °F

Location of WaterlooLocation

Historic Weather in Waterloo — Graph

°F

Waterloo Temperature Yesterday

Maximum temperature yesterday: 57 °F (at 4:00 PM)
Minimum temperature yesterday: 43 °F (at 12:00 AM)
Average temperature yesterday: 47 °F

High & Low Weather Summary for the Past Weeks

 TemperatureHumidityPressure
High77 °F (Apr 18, 2:00 PM)100% (Apr 18, 6:00 AM)30.36 "Hg (Apr 18, 6:00 AM)
Low28 °F (Apr 27, 5:00 AM)21% (Apr 20, 6:00 PM)29.71 "Hg (Apr 26, 4:00 AM)
Average46 °F66%30.06 "Hg
* Reported Apr 18 6:00 AM — May 3 6:00 AM, Waterloo, Weather by CustomWeather, © 2016

Note: Actual official high and low records may vary slightly from our data, if they occured in-between our weather recording intervals... More about our weather records

Advertising

Waterloo Weather History for the Previous 24 Hours

Scroll right to see more
 ConditionsComfort  
Time TempWeatherWind HumidityBarometerVisibility
6:00 AM
Tue, May 3
39 °FFog.2 mph93%29.94 "Hg2 mi
5:55 AM39 °FFog.No wind100%29.94 "Hg2 mi
5:00 AM39 °FFog.No wind93%29.95 "Hg3 mi
4:00 AM39 °FFog.No wind93%29.96 "Hg4 mi
3:45 AM39 °FFog.No wind100%29.96 "Hg3 mi
3:03 AM39 °FFog.3 mph93%29.97 "Hg3 mi
2:00 AM39 °FClear.5 mph93%29.98 "Hg8 mi
1:00 AM39 °FClear.5 mph93%29.98 "Hg8 mi
12:00 AM41 °FClear.3 mph87%29.97 "Hg9 mi
11:00 PM
Mon, May 2
43 °FClear.5 mph81%29.98 "Hg9 mi
10:00 PM45 °FClear.6 mph81%30.01 "Hg9 mi
9:00 PM46 °FSunny.7 mph82%29.99 "Hg9 mi
8:00 PM50 °FSunny.6 mph71%29.98 "Hg9 mi
7:00 PM54 °FPartly sunny.6 mph63%29.98 "Hg9 mi
6:00 PM55 °FMostly cloudy.7 mph59%29.98 "Hg9 mi
5:00 PM55 °FPartly sunny.2 mph55%29.99 "Hg9 mi
4:00 PM57 °FPartly sunny.12 mph59%29.99 "Hg9 mi
3:00 PM55 °FPassing clouds.6 mph63%30.00 "Hg9 mi
2:00 PM52 °FOvercast.7 mph67%30.00 "Hg9 mi
1:00 PM52 °FOvercast.10 mph67%30.01 "Hg9 mi
12:00 PM48 °FMostly cloudy.9 mph71%30.01 "Hg9 mi
11:00 AM48 °FOvercast.14 mph71%30.00 "Hg9 mi
10:00 AM45 °FMore clouds than sun.12 mph87%30.00 "Hg9 mi
9:00 AM43 °FLight rain. Overcast.9 mph87%29.99 "Hg9 mi
8:49 AM43 °FLight rain. More clouds than sun.10 mph87%29.99 "Hg9 mi
8:00 AM43 °FLow clouds.8 mph93%29.99 "Hg9 mi
7:01 AM43 °FLow clouds.7 mph93%29.98 "Hg9 mi
Weather by CustomWeather, © 2016

See weather overviewHow to use our weather pages